Zurück zum Katalog

NOAA 16 DEB

AktivSSO
NORAD 41284·DEBRIS·🇺🇸 United States

Gestartet Sep 21, 2000 von Vandenberg Space Force Base

Loading…

Nächste Überflüge (nächste 24 Stunden)

TLE

AktuellSource: Space-Track

Epoche: Sep 14, 2026, 09:05 UTC

1 41284U 00055GL  26257.37871384  .00001848  00000-0  10773-2 0  9993
2 41284  98.8621 222.3401 0073407 209.9642 149.7316 14.08401776546758

Verfolge NOAA 16 DEB in Echtzeit mit AllMySat

Download on the App Store